• In Belgium
  • List of Countries
  • For 7 days
  • Water Temperature
  • Satellite Maps
  • Weather Map
  • Weather Widgets
  • user-avatar
    Login

    Hourly Weather Hoboken

    Today, 17 July, Tuesday

    Time Temperature Precipitation Wind Pressure Humidity
    00:00 +19°C° 0 mm 2 mps 759 mmHg 70%
    01:00 +18°C° 0 mm 2 mps 759 mmHg 71%
    02:00 +18°C° 0 mm 2 mps 759 mmHg 73%
    03:00 +17°C° 0 mm 2 mps 759 mmHg 74%
    04:00 +18°C° 0 mm 3 mps 760 mmHg 73%
    05:00 +18°C° 0 mm 3 mps 760 mmHg 72%
    06:00 +19°C° 0 mm 3 mps 760 mmHg 71%
    07:00 +21°C° 0 mm 4 mps 760 mmHg 66%
    08:00 +22°C° 0 mm 4 mps 760 mmHg 62%
    09:00 +25°C° 0 mm 4 mps 761 mmHg 57%
    10:00 +26°C° 0 mm 5 mps 761 mmHg 54%
    11:00 +26°C° 0 mm 5 mps 761 mmHg 51%
    12:00 +27°C° 0 mm 5 mps 761 mmHg 48%
    13:00 +27°C° 0 mm 5 mps 761 mmHg 47%
    14:00 +26°C° 0 mm 5 mps 761 mmHg 47%
    15:00 +26°C° 0 mm 5 mps 761 mmHg 47%
    16:00 +25°C° 0 mm 5 mps 761 mmHg 49%
    17:00 +23°C° 0 mm 4 mps 761 mmHg 51%
    18:00 +23°C° 0 mm 4 mps 761 mmHg 53%
    19:00 +21°C° 0 mm 3 mps 762 mmHg 60%
    20:00 +19°C° 0 mm 3 mps 762 mmHg 67%
    21:00 +17°C° 0 mm 2 mps 762 mmHg 74%
    22:00 +16°C° 0 mm 2 mps 763 mmHg 78%
    23:00 +15°C° 0 mm 2 mps 763 mmHg 81%

    Tomorrow, 18 July, Wednesday

    Time Temperature Precipitation Wind Pressure Humidity
    00:00 +15°C° 0 mm 2 mps 763 mmHg 85%
    01:00 +14°C° 0 mm 2 mps 763 mmHg 86%
    02:00 +14°C° 0 mm 2 mps 763 mmHg 88%
    03:00 +14°C° 0 mm 2 mps 763 mmHg 89%
    04:00 +15°C° 0 mm 2 mps 763 mmHg 85%
    05:00 +16°C° 0 mm 2 mps 763 mmHg 82%
    06:00 +17°C° 0 mm 2 mps 763 mmHg 78%
    07:00 +18°C° 0 mm 2 mps 763 mmHg 71%
    08:00 +20°C° 0 mm 2 mps 763 mmHg 64%
    09:00 +23°C° 0 mm 2 mps 763 mmHg 57%
    10:00 +24°C° 0 mm 2 mps 763 mmHg 53%
    11:00 +25°C° 0 mm 2 mps 763 mmHg 50%
    12:00 +26°C° 0 mm 2 mps 763 mmHg 47%
    13:00 +26°C° 0 mm 2 mps 763 mmHg 47%
    14:00 +26°C° 0 mm 2 mps 763 mmHg 47%
    15:00 +26°C° 0 mm 2 mps 763 mmHg 47%
    16:00 +25°C° 0 mm 2 mps 763 mmHg 48%
    17:00 +25°C° 0 mm 2 mps 763 mmHg 50%
    18:00 +25°C° 0 mm 2 mps 763 mmHg 51%
    19:00 +23°C° 0 mm 2 mps 764 mmHg 55%
    20:00 +21°C° 0 mm 2 mps 764 mmHg 59%
    21:00 +19°C° 0 mm 3 mps 764 mmHg 62%
    22:00 +18°C° 0 mm 2 mps 764 mmHg 64%
    23:00 +18°C° 0 mm 2 mps 764 mmHg 66%

    Day after tomorrow, 19 July, Thursday

    Time Temperature Precipitation Wind Pressure Humidity
    00:00 +17°C° 0 mm 2 mps 764 mmHg 68%
    01:00 +17°C° 0 mm 2 mps 764 mmHg 70%
    02:00 +16°C° 0 mm 2 mps 764 mmHg 72%
    03:00 +16°C° 0 mm 2 mps 764 mmHg 75%
    04:00 +16°C° 0 mm 2 mps 764 mmHg 73%
    05:00 +17°C° 0 mm 2 mps 764 mmHg 71%
    06:00 +18°C° 0 mm 2 mps 764 mmHg 69%
    07:00 +20°C° 0 mm 2 mps 764 mmHg 62%
    08:00 +23°C° 0 mm 2 mps 764 mmHg 56%
    09:00 +25°C° 0 mm 2 mps 764 mmHg 49%
    10:00 +26°C° 0 mm 2 mps 764 mmHg 46%
    11:00 +27°C° 0 mm 2 mps 764 mmHg 42%
    12:00 +28°C° 0 mm 2 mps 764 mmHg 39%
    13:00 +28°C° 0 mm 2 mps 764 mmHg 39%
    14:00 +28°C° 0 mm 2 mps 763 mmHg 39%
    15:00 +28°C° 0 mm 3 mps 763 mmHg 39%
    16:00 +27°C° 0 mm 3 mps 763 mmHg 40%
    17:00 +27°C° 0 mm 3 mps 763 mmHg 42%
    18:00 +26°C° 0 mm 4 mps 763 mmHg 43%
    19:00 +23°C° 0 mm 4 mps 763 mmHg 44%
    20:00 +21°C° 0 mm 4 mps 763 mmHg 46%
    21:00 +20°C° 0 mm 4 mps 763 mmHg 47%
    22:00 +19°C° 0 mm 4 mps 763 mmHg 51%
    23:00 +18°C° 0 mm 3 mps 763 mmHg 56%

    20 July, Friday

    Time Temperature Precipitation Wind Pressure Humidity
    00:00 +17°C° 0 mm 3 mps 763 mmHg 61%
    01:00 +16°C° 0 mm 3 mps 763 mmHg 67%
    02:00 +16°C° 0 mm 3 mps 763 mmHg 72%
    03:00 +14°C° 0 mm 3 mps 763 mmHg 78%
    04:00 +16°C° 0 mm 3 mps 762 mmHg 76%
    05:00 +17°C° 0 mm 3 mps 762 mmHg 73%
    06:00 +18°C° 0 mm 3 mps 762 mmHg 70%
    07:00 +20°C° 0 mm 3 mps 762 mmHg 64%
    08:00 +24°C° 0 mm 3 mps 762 mmHg 57%
    09:00 +26°C° 0 mm 3 mps 762 mmHg 51%
    10:00 +27°C° 0 mm 3 mps 761 mmHg 47%
    11:00 +28°C° 0 mm 3 mps 761 mmHg 44%
    12:00 +29°C° 0 mm 3 mps 761 mmHg 40%
    13:00 +29°C° 0 mm 3 mps 761 mmHg 40%
    14:00 +29°C° 0 mm 3 mps 761 mmHg 40%
    15:00 +29°C° 0 mm 4 mps 760 mmHg 40%
    16:00 +28°C° 0.1 mm 3 mps 760 mmHg 42%
    17:00 +27°C° 0.1 mm 3 mps 760 mmHg 44%
    18:00 +26°C° 0.1 mm 3 mps 760 mmHg 46%
    19:00 +25°C° 0.1 mm 3 mps 760 mmHg 47%
    20:00 +24°C° 0.1 mm 3 mps 761 mmHg 48%
    21:00 +22°C° 0.1 mm 4 mps 761 mmHg 50%
    22:00 +21°C° 0 mm 3 mps 761 mmHg 53%
    23:00 +20°C° 0 mm 3 mps 761 mmHg 57%

    21 July, Saturday

    Time Temperature Precipitation Wind Pressure Humidity
    00:00 +19°C° 0 mm 3 mps 761 mmHg 60%
    01:00 +18°C° 0 mm 3 mps 761 mmHg 65%
    02:00 +17°C° 0 mm 3 mps 761 mmHg 70%
    03:00 +16°C° 0 mm 3 mps 761 mmHg 75%
    04:00 +17°C° 0 mm 3 mps 761 mmHg 73%
    05:00 +18°C° 0 mm 3 mps 761 mmHg 70%
    06:00 +18°C° 0 mm 3 mps 761 mmHg 68%
    07:00 +21°C° 0 mm 3 mps 762 mmHg 60%
    08:00 +24°C° 0 mm 3 mps 762 mmHg 52%
    09:00 +26°C° 0 mm 3 mps 762 mmHg 44%
    10:00 +27°C° 0 mm 4 mps 762 mmHg 41%
    11:00 +28°C° 0 mm 4 mps 762 mmHg 37%
    12:00 +29°C° 0 mm 4 mps 762 mmHg 34%
    13:00 +29°C° 0 mm 4 mps 762 mmHg 34%
    14:00 +29°C° 0 mm 5 mps 762 mmHg 34%
    15:00 +29°C° 0 mm 5 mps 762 mmHg 34%
    16:00 +28°C° 0 mm 5 mps 762 mmHg 37%
    17:00 +27°C° 0 mm 5 mps 762 mmHg 41%
    18:00 +25°C° 0 mm 4 mps 762 mmHg 45%
    19:00 +23°C° 0 mm 4 mps 762 mmHg 50%
    20:00 +21°C° 0 mm 3 mps 763 mmHg 55%
    21:00 +19°C° 0 mm 2 mps 763 mmHg 60%
    22:00 +19°C° 0 mm 2 mps 763 mmHg 61%
    23:00 +20°C° 0 mm 1 mps 763 mmHg 62%

    22 July, Sunday

    Time Temperature Precipitation Wind Pressure Humidity
    00:00 +17°C° 0 mm 0 mps 763 mmHg 64%
    01:00 +19°C° 0 mm 1 mps 763 mmHg 66%
    02:00 +18°C° 0 mm 1 mps 763 mmHg 69%
    03:00 +16°C° 0 mm 1 mps 763 mmHg 72%
    04:00 +18°C° 0 mm 1 mps 763 mmHg 68%
    05:00 +20°C° 0 mm 1 mps 763 mmHg 65%
    06:00 +20°C° 0 mm 2 mps 763 mmHg 61%
    07:00 +21°C° 0 mm 2 mps 763 mmHg 57%
    08:00 +24°C° 0 mm 2 mps 763 mmHg 53%
    09:00 +26°C° 0 mm 3 mps 763 mmHg 49%
    10:00 +27°C° 0 mm 3 mps 763 mmHg 47%
    11:00 +27°C° 0 mm 4 mps 763 mmHg 46%
    12:00 +28°C° 0 mm 4 mps 763 mmHg 44%
    13:00 +28°C° 0 mm 4 mps 763 mmHg 45%
    14:00 +27°C° 0 mm 4 mps 763 mmHg 47%
    15:00 +27°C° 0 mm 4 mps 763 mmHg 48%
    16:00 +27°C° 0 mm 4 mps 763 mmHg 50%
    17:00 +26°C° 0 mm 3 mps 763 mmHg 52%
    18:00 +25°C° 0 mm 3 mps 763 mmHg 54%
    19:00 +24°C° 0 mm 2 mps 763 mmHg 60%
    20:00 +21°C° 0 mm 2 mps 763 mmHg 66%
    21:00 +20°C° 0 mm 1 mps 763 mmHg 72%
    22:00 +19°C° 0 mm 1 mps 763 mmHg 75%
    23:00 +19°C° 0 mm 1 mps 763 mmHg 77%
    Show more